GW5355 Weather Reports


time (UTC)temp
C
wind
direction
speed
KPH
gust
KPH
rain 1hr
cm
rain 24hr
cm
rain mn
cm
humidity
%
barometer
mb
20260507044513 6 155 0.0 4.8 0.00 0.00 0.00 50 1012.6
20260507044007 6 108 1.6 4.8 0.00 0.00 0.00 50 1012.6
20260507043503 6 132 1.6 3.2 0.00 0.00 0.00 50 1012.7
20260507043009 6 155 1.6 3.2 0.00 0.00 0.00 51 1012.8
20260507042508 6 130 0.0 3.2 0.00 0.00 0.00 50 1012.7
20260507042007 6 101 0.0 3.2 0.00 0.00 0.00 49 1012.7
20260507041512 6 115 0.0 4.8 0.00 0.00 0.00 50 1012.8
20260507041006 7 129 0.0 4.8 0.00 0.00 0.00 46 1012.7
20260507040507 7 109 1.6 4.8 0.00 0.00 0.00 45 1012.9
20260507040016 7 97 1.6 4.8 0.00 0.00 0.00 45 1012.9
20260507035506 7 92 1.6 3.2 0.00 0.00 0.00 45 1012.8
20260507035005 7 88 1.6 3.2 0.00 0.00 0.00 44 1012.9
20260507034513 7 83 1.6 3.2 0.00 0.00 0.00 45 1013.0
20260507034010 7 79 3.2 3.2 0.00 0.00 0.00 44 1013.0
20260507033506 7 140 0.0 1.6 0.00 0.00 0.00 45 1013.1
20260507033020 7 141 0.0 3.2 0.00 0.00 0.00 44 1013.1
20260507032506 7 141 0.0 3.2 0.00 0.00 0.00 43 1013.1
20260507032003 7 171 0.0 3.2 0.00 0.00 0.00 41 1013.1
20260507031528 7 263 0.0 3.2 0.00 0.00 0.00 43 1013.1
20260507031006 7 263 1.6 3.2 0.00 0.00 0.00 42 1013.2
20260507030504 8 235 0.0 4.8 0.00 0.00 0.00 42 1013.2
20260507030018 8 101 3.2 4.8 0.00 0.00 0.00 40 1013.3
20260507025508 8 117 3.2 4.8 0.00 0.00 0.00 40 1013.3
20260507025008 8 74 3.2 3.2 0.00 0.00 0.00 39 1013.4
20260507024520 8 93 1.6 3.2 0.00 0.00 0.00 38 1013.2
20260507024006 8 78 1.6 4.8 0.00 0.00 0.00 39 1013.2
20260507023505 7 40 3.2 12.9 0.00 0.00 0.00 40 1013.3
20260507023019 7 22 8.0 12.9 0.00 0.00 0.00 42 1013.3
20260507022507 8 348 4.8 6.4 0.00 0.00 0.00 40 1013.3
20260507022005 8 348 1.6 4.8 0.00 0.00 0.00 38 1013.2
20260507021535 8 325 3.2 4.8 0.00 0.00 0.00 36 1013.2
20260507021007 8 290 3.2 4.8 0.00 0.00 0.00 37 1013.2
20260507020505 8 315 0.0 4.8 0.00 0.00 0.00 37 1013.2
20260507020025 8 323 3.2 9.7 0.00 0.00 0.00 38 1013.2
20260507015506 8 341 3.2 9.7 0.00 0.00 0.00 37 1013.3
20260507015004 8 273 6.4 9.7 0.00 0.00 0.00 36 1013.3
20260507014524 8 270 4.8 9.7 0.00 0.00 0.00 36 1013.2
20260507014010 9 299 4.8 11.3 0.00 0.00 0.00 36 1013.2
20260507013505 9 304 3.2 12.9 0.00 0.00 0.00 36 1013.2
20260507013030 9 288 4.8 12.9 0.00 0.00 0.00 36 1013.2
20260507012507 9 299 6.4 9.7 0.00 0.00 0.00 36 1013.2
20260507012007 10 291 4.8 9.7 0.00 0.00 0.00 35 1013.2
20260507011529 10 291 4.8 9.7 0.00 0.00 0.00 35 1013.1
20260507011008 10 306 3.2 11.3 0.00 0.00 0.00 35 1013.1
20260507010510 10 286 4.8 14.5 0.00 0.00 0.00 34 1013.1
20260507010037 10 298 6.4 14.5 0.00 0.00 0.00 34 1013.0
20260507005507 10 284 6.4 14.5 0.00 0.00 0.00 33 1013.1
20260507005012 10 285 6.4 20.9 0.00 0.00 0.00 33 1013.1
20260507004525 10 281 9.7 20.9 0.00 0.00 0.00 33 1013.1
20260507004006 10 281 9.7 24.1 0.00 0.00 0.00 32 1013.2
20260507003507 11 298 9.7 24.1 0.00 0.00 0.00 31 1013.2
20260507003022 11 281 12.9 25.7 0.00 0.00 0.00 30 1013.2
20260507002506 11 307 11.3 27.4 0.00 0.00 0.00 31 1013.3
20260507002002 11 302 14.5 27.4 0.00 0.00 0.00 30 1013.2
20260507001504 11 360 14.5 27.4 0.00 0.00 0.00 31 1013.3
20260507001004 11 323 14.5 27.4 0.00 0.00 0.00 30 1013.3
20260507000503 12 268 14.5 33.8 0.00 0.00 0.00 30 1013.3
20260507000006 12 302 20.9 33.8 0.00 0.00 0.00 29 1013.4
20260506235506 12 307 19.3 29.0 0.00 0.00 0.00 30 1013.4
20260506235002 11 298 14.5 24.1 0.00 0.00 0.00 31 1013.2
20260506234508 11 306 12.9 29.0 0.00 0.00 0.00 31 1013.4
20260506234006 11 302 14.5 29.0 0.00 0.00 0.00 31 1013.4
20260506233503 11 308 17.7 29.0 0.00 0.00 0.00 31 1013.4
20260506233008 11 360 12.9 27.4 0.00 0.00 0.00 32 1013.5
20260506232506 11 345 9.7 32.2 0.00 0.00 0.00 33 1013.4
20260506232002 11 237 12.9 35.4 0.00 0.00 0.00 32 1013.6
20260506231508 11 322 17.7 35.4 0.00 0.00 0.00 32 1013.5
20260506231007 11 265 19.3 32.2 0.00 0.00 0.00 32 1013.6
20260506230504 11 360 9.7 27.4 0.00 0.00 0.00 33 1013.5
20260506230011 11 307 14.5 27.4 0.00 0.00 0.00 32 1013.6
20260506225511 11 326 9.7 25.7 0.00 0.00 0.00 33 1013.6
20260506225002 12 297 11.3 24.1 0.00 0.00 0.00 33 1013.6
20260506224510 11 351 14.5 22.5 0.00 0.00 0.00 34 1013.8
20260506224006 11 299 12.9 20.9 0.00 0.00 0.00 33 1013.7
20260506223501 11 312 12.9 22.5 0.00 0.00 0.00 33 1013.9
20260506223017 11 323 12.9 22.5 0.00 0.00 0.00 34 1013.9
20260506222506 11 14 9.7 19.3 0.00 0.00 0.00 34 1013.9
20260506222006 11 333 11.3 19.3 0.00 0.00 0.00 36 1014.0
20260506221516 11 262 6.4 19.3 0.00 0.00 0.00 35 1014.0
20260506221009 11 280 14.5 19.3 0.00 0.00 0.00 34 1014.1
20260506220503 11 309 9.7 30.6 0.00 0.00 0.00 34 1014.1
20260506220022 11 300 14.5 30.6 0.00 0.00 0.00 33 1014.1
20260506215506 11 360 17.7 30.6 0.00 0.00 0.00 35 1014.2
20260506215006 11 338 14.5 30.6 0.00 0.00 0.00 35 1014.2
20260506214518 11 285 14.5 25.7 0.00 0.00 0.00 36 1014.3
20260506214008 10 360 8.0 19.3 0.00 0.00 0.00 36 1014.3
20260506213503 11 322 12.9 19.3 0.00 0.00 0.00 34 1014.4
20260506213027 10 317 11.3 20.9 0.00 0.00 0.00 35 1014.5
20260506212502 11 305 9.7 30.6 0.00 0.00 0.00 37 1014.5
20260506212006 10 298 19.3 30.6 0.00 0.00 0.00 35 1014.6
20260506211521 11 345 14.5 32.2 0.00 0.00 0.00 35 1014.7
20260506211003 11 337 11.3 32.2 0.00 0.00 0.00 36 1014.8
20260506210503 11 360 12.9 25.7 0.00 0.00 0.00 36 1014.8
20260506210028 10 267 14.5 32.2 0.00 0.00 0.00 37 1014.7
20260506205502 10 360 20.9 32.2 0.00 0.00 0.00 35 1014.8
20260506205006 10 311 11.3 30.6 0.00 0.00 0.00 36 1014.9
20260506204531 10 303 8.0 32.2 0.00 0.00 0.00 36 1014.9
20260506204002 10 269 24.1 32.2 0.00 0.00 0.00 36 1015.0
20260506203508 10 313 9.7 35.4 0.00 0.00 0.00 37 1015.1
20260506203027 10 295 16.1 35.4 0.00 0.00 0.00 36 1015.1
20260506202502 10 283 19.3 30.6 0.00 0.00 0.00 38 1015.1
20260506202005 10 284 14.5 30.6 0.00 0.00 0.00 37 1015.2
20260506201527 10 329 9.7 29.0 0.00 0.00 0.00 39 1015.3
20260506201004 10 347 14.5 32.2 0.00 0.00 0.00 37 1015.4
20260506200505 10 290 20.9 32.2 0.00 0.00 0.00 36 1015.4
20260506200025 10 300 12.9 32.2 0.00 0.00 0.00 35 1015.5
20260506195503 10 282 19.3 32.2 0.00 0.00 0.00 37 1015.7
20260506195006 11 311 17.7 29.0 0.00 0.00 0.00 36 1015.7
20260506194527 11 315 14.5 27.4 0.00 0.00 0.00 36 1015.5
20260506194002 11 286 14.5 29.0 0.00 0.00 0.00 36 1015.5
20260506193505 10 262 17.7 25.7 0.00 0.00 0.00 37 1015.6
20260506193026 10 284 12.9 29.0 0.00 0.00 0.00 37 1015.7
20260506192503 10 321 16.1 29.0 0.00 0.00 0.00 37 1015.7
20260506192009 9 329 17.7 27.4 0.00 0.00 0.00 40 1015.8
20260506191528 10 360 17.7 29.0 0.00 0.00 0.00 39 1015.8
20260506191003 10 318 11.3 33.8 0.00 0.00 0.00 41 1015.9
20260506190508 9 311 19.3 38.6 0.00 0.00 0.00 39 1015.9
20260506190028 9 9 19.3 38.6 0.00 0.00 0.00 39 1015.9
20260506185505 9 304 17.7 29.0 0.00 0.00 0.00 41 1016.0
20260506185011 9 317 14.5 30.6 0.00 0.00 0.00 39 1015.9
20260506184528 9 294 14.5 30.6 0.00 0.00 0.00 39 1015.9
20260506184005 9 311 14.5 30.6 0.00 0.00 0.00 39 1015.9
20260506183508 9 360 17.7 33.8 0.00 0.00 0.00 38 1016.0
20260506183006 9 312 19.3 32.2 0.00 0.00 0.00 39 1016.0
20260506182506 9 360 11.3 32.2 0.00 0.00 0.00 41 1016.2
20260506182010 8 351 17.7 33.8 0.00 0.00 0.00 40 1016.2
20260506181513 9 336 11.3 33.8 0.00 0.00 0.00 40 1016.2
20260506181006 8 275 16.1 29.0 0.00 0.00 0.00 40 1016.3
20260506180510 8 360 8.0 29.0 0.00 0.00 0.00 41 1016.4
20260506180015 8 305 16.1 37.0 0.00 0.00 0.00 40 1016.4
20260506175506 8 328 19.3 35.4 0.00 0.00 0.00 41 1016.5
20260506175007 8 360 14.5 35.4 0.00 0.00 0.00 39 1016.4
20260506174514 8 360 19.3 37.0 0.00 0.00 0.00 40 1016.5
20260506174008 8 339 22.5 37.0 0.00 0.00 0.00 40 1016.5
20260506173510 8 312 17.7 32.2 0.00 0.00 0.00 38 1016.5
20260506173014 8 311 9.7 32.2 0.00 0.00 0.00 41 1016.5
20260506172507 8 360 16.1 32.2 0.00 0.00 0.00 39 1016.5
20260506172009 7 350 14.5 32.2 0.00 0.00 0.00 41 1016.5
20260506171525 8 319 22.5 32.2 0.00 0.00 0.00 39 1016.7
20260506171007 8 328 17.7 32.2 0.00 0.00 0.00 39 1016.6
20260506170507 8 352 16.1 40.2 0.00 0.00 0.00 41 1016.5
20260506170014 7 360 19.3 40.2 0.00 0.00 0.00 39 1016.5
20260506165508 7 15 14.5 33.8 0.00 0.00 0.00 41 1016.5
20260506165010 7 300 11.3 35.4 0.00 0.00 0.00 42 1016.5
20260506164520 7 360 22.5 35.4 0.00 0.00 0.00 41 1016.6
20260506164013 7 273 17.7 30.6 0.00 0.00 0.00 43 1016.6
20260506163513 7 319 14.5 35.4 0.00 0.00 0.00 42 1016.7
20260506163018 7 329 14.5 35.4 0.00 0.00 0.00 42 1016.7
20260506162508 7 311 17.7 30.6 0.00 0.00 0.00 42 1016.8
20260506162010 7 360 12.9 32.2 0.00 0.00 0.00 45 1016.7
20260506161522 6 360 16.1 32.2 0.00 0.00 0.00 43 1016.6
20260506161007 7 350 12.9 29.0 0.00 0.00 0.00 44 1016.6
20260506160513 7 321 11.3 25.7 0.00 0.00 0.00 43 1016.6
20260506160031 7 360 16.1 25.7 0.00 0.00 0.00 44 1016.6
20260506155507 7 9 16.1 33.8 0.00 0.00 0.00 44 1016.5
20260506155007 7 268 12.9 33.8 0.00 0.00 0.00 44 1016.6
20260506154522 7 360 17.7 30.6 0.00 0.00 0.00 44 1016.6
20260506154011 6 298 14.5 30.6 0.00 0.00 0.00 45 1016.6
20260506153502 6 360 17.7 30.6 0.00 0.00 0.00 44 1016.6
20260506153020 6 258 14.5 25.7 0.00 0.00 0.00 44 1016.5
20260506152508 6 298 14.5 27.4 0.00 0.00 0.00 46 1016.6
20260506152007 6 331 8.0 30.6 0.00 0.00 0.00 46 1016.6
20260506151504 6 317 14.5 30.6 0.00 0.00 0.00 46 1016.5
20260506151004 6 315 11.3 24.1 0.00 0.00 0.00 46 1016.5
20260506150506 6 232 9.7 25.7 0.00 0.00 0.00 46 1016.6
20260506150007 6 311 11.3 25.7 0.00 0.00 0.00 48 1016.6
20260506145504 6 298 11.3 24.1 0.00 0.00 0.00 48 1016.6
20260506145005 6 324 14.5 22.5 0.00 0.00 0.00 48 1016.6
20260506144505 6 313 9.7 22.5 0.00 0.00 0.00 47 1016.5
20260506144009 6 360 14.5 22.5 0.00 0.00 0.00 48 1016.5
20260506143506 6 319 12.9 22.5 0.00 0.00 0.00 48 1016.6
20260506143012 6 324 14.5 22.5 0.00 0.00 0.00 48 1016.5
20260506142503 6 332 14.5 22.5 0.00 0.00 0.00 51 1016.4
20260506142007 6 360 8.0 22.5 0.00 0.00 0.00 51 1016.5
20260506141509 6 343 9.7 22.5 0.00 0.00 0.00 51 1016.5
20260506141004 6 346 12.9 22.5 0.00 0.00 0.00 53 1016.4
20260506140506 6 343 8.0 17.7 0.00 0.00 0.00 54 1016.4
20260506140010 5 360 12.9 17.7 0.00 0.00 0.00 54 1016.4
20260506135506 5 309 8.0 16.1 0.00 0.00 0.00 54 1016.4
20260506135007 5 327 8.0 12.9 0.00 0.00 0.00 54 1016.4
20260506134505 5 295 6.4 12.9 0.00 0.00 0.00 54 1016.3
20260506134006 5 360 4.8 12.9 0.00 0.00 0.00 58 1016.3
20260506133509 4 315 4.8 11.3 0.00 0.00 0.00 60 1016.3
20260506133007 3 313 4.8 11.3 0.00 0.00 0.00 61 1016.3
20260506132509 3 312 4.8 6.4 0.00 0.00 0.00 65 1016.3
20260506132008 2 313 4.8 6.4 0.00 0.00 0.00 66 1016.4
20260506131515 2 306 3.2 8.0 0.00 0.00 0.00 65 1016.3
20260506131006 2 311 4.8 8.0 0.00 0.00 0.00 64 1016.2
20260506130507 2 299 4.8 8.0 0.00 0.00 0.00 65 1016.3
20260506130012 1 338 1.6 4.8 0.00 0.00 0.00 68 1016.2
20260506125505 1 323 0.0 4.8 0.00 0.00 0.00 69 1016.3
20260506125011 0 282 3.2 9.7 0.00 0.00 0.00 70 1016.2
20260506124511 0 309 4.8 9.7 0.00 0.00 0.00 71 1016.2
20260506124005 0 315 3.2 9.7 0.00 0.00 0.00 71 1016.2
20260506123503 0 294 3.2 9.7 0.00 0.00 0.00 71 1016.1
20260506123012 0 272 6.4 9.7 0.00 0.00 0.00 70 1016.0
20260506122507 0 267 3.2 6.4 0.00 0.00 0.00 70 1015.9
20260506122004 0 236 4.8 6.4 0.00 0.00 0.00 70 1015.9
20260506121515 0 234 3.2 4.8 0.00 0.00 0.00 71 1015.9
20260506121006 0 246 3.2 6.4 0.00 0.00 0.00 71 1015.7
20260506120507 0 245 4.8 6.4 0.00 0.00 0.00 71 1015.5
20260506120016 0 259 3.2 3.2 0.00 0.00 0.00 71 1015.5
20260506115508 0 262 1.6 4.8 0.00 0.00 0.00 71 1015.5
20260506115002 0 286 3.2 6.4 0.00 0.00 0.00 70 1015.5
20260506114520 0 279 1.6 6.4 0.00 0.00 0.00 71 1015.5
20260506114008 0 296 3.2 6.4 0.00 0.00 0.00 72 1015.6
20260506113502 0 292 3.2 6.4 0.00 0.00 0.00 72 1015.4
20260506113019 0 291 3.2 3.2 0.00 0.00 0.00 72 1015.1
20260506112507 0 263 1.6 3.2 0.00 0.00 0.00 72 1015.0
20260506112003 0 300 1.6 3.2 0.00 0.00 0.00 72 1015.0
20260506111520 0 300 1.6 3.2 0.00 0.00 0.00 72 1015.0
20260506111007 0 313 1.6 3.2 0.00 0.00 0.00 72 1015.0
20260506110506 0 306 1.6 3.2 0.00 0.00 0.00 71 1015.1
20260506110018 0 306 1.6 4.8 0.00 0.00 0.00 71 1015.1
20260506105507 0 306 3.2 4.8 0.00 0.00 0.00 71 1015.1
20260506105005 0 302 4.8 4.8 0.00 0.00 0.00 71 1015.0
20260506104521 0 289 0.0 1.6 0.00 0.00 0.00 72 1014.9
20260506104008 -1 289 0.0 3.2 0.00 0.00 0.00 73 1014.9
20260506103502 -1 289 0.0 3.2 0.00 0.00 0.00 72 1014.9
20260506103020 -1 289 1.6 4.8 0.00 0.00 0.00 72 1015.0
20260506102509 -1 268 3.2 4.8 0.00 0.00 0.00 72 1015.0
20260506102006 -1 286 1.6 3.2 0.00 0.00 0.00 73 1015.0
20260506101542 -1 279 1.6 3.2 0.00 0.00 0.00 72 1015.0
20260506101010 -1 271 1.6 3.2 0.00 0.00 0.00 71 1014.9
20260506100503 -1 254 3.2 3.2 0.00 0.00 0.00 72 1015.0
20260506100022 -1 275 3.2 3.2 0.00 0.00 0.00 72 1014.9
20260506095512 -1 314 1.6 3.2 0.00 0.00 0.00 72 1014.6
20260506095006 -1 314 1.6 3.2 0.00 0.00 0.00 72 1014.4
20260506094523 -1 314 3.2 3.2 0.00 0.00 0.00 71 1014.5
20260506094007 -1 314 0.0 4.8 0.00 0.00 0.00 71 1014.5
20260506093512 -2 314 3.2 4.8 0.00 0.00 0.00 72 1014.4
20260506093026 -2 277 3.2 4.8 0.00 0.00 0.00 72 1014.4
20260506092508 -2 281 3.2 6.4 0.00 0.00 0.00 72 1014.5
20260506092007 -2 306 4.8 8.0 0.00 0.00 0.00 71 1014.6
20260506091528 -1 314 3.2 9.7 0.00 0.00 0.00 70 1014.6
20260506091010 -1 320 4.8 9.7 0.00 0.00 0.00 70 1014.5
20260506090506 -1 274 4.8 4.8 0.00 0.00 0.00 71 1014.2
20260506090025 -1 244 3.2 4.8 0.00 0.00 0.00 72 1014.1
20260506085503 -1 232 3.2 4.8 0.00 0.00 0.00 72 1014.0
20260506085009 -1 346 0.0 0.0 0.00 0.00 0.00 72 1013.7
20260506084529 -1 346 0.0 0.0 0.00 0.00 0.00 71 1013.7
20260506084003 -1 346 0.0 3.2 0.00 0.00 0.00 72 1013.7
20260506083507 -1 346 1.6 6.4 0.00 0.00 0.00 72 1013.7
20260506083026 -2 346 3.2 6.4 0.00 0.00 0.00 72 1013.8
20260506082503 -2 352 4.8 4.8 0.00 0.00 0.00 72 1014.0
20260506082009 -1 352 4.8 4.8 0.00 0.00 0.00 72 1014.0
20260506081526 -1 308 0.0 6.4 0.00 0.00 0.00 72 1014.1
20260506081008 -1 308 1.6 6.4 0.00 0.00 0.00 72 1014.1
20260506080507 -1 298 3.2 4.8 0.00 0.00 0.00 72 1014.2
20260506073507 -1 301 3.2 4.8 0.00 0.00 0.00 69 1014.0
20260506073027 0 333 3.2 3.2 0.00 0.00 0.00 69 1013.9
20260506072512 0 324 1.6 3.2 0.00 0.00 0.00 67 1013.7
20260506072008 0 324 1.6 4.8 0.00 0.00 0.00 67 1013.7
20260506071528 0 324 1.6 6.4 0.00 0.00 0.00 66 1013.8
20260506071008 0 304 3.2 6.4 0.00 0.00 0.00 65 1013.8
20260506070503 0 264 6.4 6.4 0.00 0.00 0.00 64 1013.9
20260506062503 0 324 0.0 3.2 0.00 0.00 0.00 64 1013.8
20260506062002 0 324 0.0 4.8 0.00 0.00 0.00 64 1013.9
20260506061516 1 324 0.0 4.8 0.00 0.00 0.00 63 1013.9
20260506061002 1 306 1.6 3.2 0.00 0.00 0.00 63 1013.9
20260506060506 1 317 1.6 4.8 0.00 0.00 0.00 62 1013.9
20260506051002 2 333 4.8 6.4 0.00 0.00 0.00 59 1013.5
20260506050504 2 329 3.2 6.4 0.00 0.00 0.00 58 1013.5
20260506045005 2 328 4.8 6.4 0.00 0.00 0.00 57 1013.3